Regional Weather Roundup
Issued by NWS

Home | Current Version | Previous Version | Graphics & Text | Print | Product List | Glossary On
Versions: 1 2 3 4 5 6 7 8 9 10 11 12 13 14 15 16 17 18 19 20 21 22 23 24 25 26 27 28 29 30 31 32 33 34 35 36 37 38 39 40 41 42 43 44 45 46 47 48 49 50
000
ASUS43 KMPX 301410
RWRMN
WEATHER ROUNDUP FOR MINNESOTA
NATIONAL WEATHER SERVICE TWIN CITIES/CHANHASSEN MN
900 AM CDT FRI SEP 30 2016


NOTE: "FAIR" INDICATES FEW OR NO CLOUDS BELOW 12,000 FEET WITH NO
SIGNIFICANT WEATHER AND/OR OBSTRUCTIONS TO VISIBILITY. N/A MEANS
CURRENT SKY AND/OR WEATHER CONDITIONS ARE NOT AVAILABLE.

MNZ060>063-068>070-301500-
   Twin Cities Metro

CITY           SKY/WX    TMP DP  RH WIND       PRES   REMARKS
TWIN CITIES    CLOUDY    52  49  89 N7        30.38S
ST PAUL        SUNNY     54  50  86 N5        30.39S
CRYSTAL        FOG       50  47  89 NE5       30.38R VSB 3/4
BLAINE         FOG       52  52 100 NE5       30.39R VSB 1/2
LAKEVILLE      SUNNY     52  52 100 NE3       30.37R
EDEN PRAIRIE   FOG       52  50  93 NE10      30.37S VSB 3/4
LAKEVILLE      SUNNY     52  52 100 NE3       30.37R
SOUTH ST PAUL  SUNNY     54  51  88 NE5       30.38S
LAKE ELMO      FAIR      52  50  93 NE5       30.39S
$$
MNZ001>005-007-008-013>017-022>024-027-028-301500-
   Northwest Minnesota

CITY           SKY/WX    TMP DP  RH WIND       PRES   REMARKS
BEMIDJI        FOG       48  48 100 SE6       30.40S VSB 1/4
HALLOCK        MOSUNNY   52  48  87 SE10      30.32S
ROSEAU         HAZE      52  46  82 SE8       30.37R VSB 1/4
WARROAD        CLOUDY    52  48  87 SE9       30.38S
THIEF RVR FALL SUNNY     49  47  93 SE10      30.36S
CROOKSTON      SUNNY     52  48  87 SE9       30.34S
FOSSTON        FOG       46  46 100 SE6       30.38R VSB 1
DETROIT LAKES  FOG       48  46  93 SE9       30.38S VSB 1/4
MOORHEAD       SUNNY     52  48  87 SE8       30.34S
PARK RAPIDS    FOG       51  49  92 SE10      30.39S VSB 1/2
MAHNOMEN       CLOUDY    49  49  98 SE10      30.36S FOG
$$
MNZ006-009>011-018-025>026-301500-
   North Central Minnesota

CITY           SKY/WX    TMP DP  RH WIND       PRES   REMARKS
BAUDETTE       PTSUNNY   50  46  86 SE7       30.41S
FLAG ISLAND    CLOUDY    54  48  82 SE16      30.37S
INTL FALLS     FOG       46  46 100 SE7       30.43F VSB 1/2
WASKISH        FOG       46  45  93 SE7       30.41S VSB 1/2
BIG FORK       FOG       50  48  93 SE5       30.43S VSB 1
LONGVILLE      CLOUDY    50  50 100 SE5       30.40F FOG
GRAND RAPIDS   CLOUDY    50  50 100 VRB5      30.44S FOG
CRANE LAKE     CLOUDY    46  46 100 CALM      30.46F FOG
ORR            CLOUDY    48  46  93 SE7       30.42S FOG
COOK           CLOUDY    50  48  93 SE5       30.45S FOG
WALKER         CLOUDY    49  48  99 SE7       30.40S FOG
$$
MNZ012-019>021-037-301500-
   Northeast Minnesota

CITY           SKY/WX    TMP DP  RH WIND       PRES   REMARKS
DULUTH         CLOUDY    52  50  93 E8        30.44R
ELY            CLOUDY    48  46  93 SE5       30.45F
HIBBING        CLOUDY    50  48  93 SE7       30.44F
EVELETH        CLOUDY    52  49  90 E5        30.46S
DULUTH HARBOR  CLOUDY    55  52  88 NE12      30.45S
TWO HARBORS    CLOUDY    55  50  82 E6        30.44R
SILVER BAY     CLOUDY    54  52  94 E3        30.44S
GRAND MARAIS     N/A     55  53  93 E8        30.47R
G MARAIS ARPRT SUNNY     48  46  93 NE3       30.47S
$$
MNZ029>031-032-039>041-046>048-054>057-064-301500-
   West Central Minnesota

CITY           SKY/WX    TMP DP  RH WIND       PRES   REMARKS
FERGUS FALLS   SUNNY     50  50 100 E8        30.38S
MORRIS         SUNNY     52  50  93 SE7       30.35S
ALEXANDRIA     FOG       49  49 100 SE8       30.39S VSB 1/4
ELBOW LAKE     FOG       49  49 100 SE9       30.36S VSB 3/4
WADENA         DRZL/FOG  46  46 100 SE9       30.39S VSB<1/4
GLENWOOD       FOG       48  48 100 E6        30.38S VSB<1/4
BENSON         FOG       48  46  93 SE6       30.36F VSB<1/4
ORTONVILLE     PTSUNNY   48  46  93 CALM      30.35S FOG
MADISON        FOG       48  48 100 SE3       30.36S VSB<1/4
WILLMAR        CLOUDY    52  52 100 E5        30.38S FOG
$$
MNZ033>034-036-042>043-049>051-058-059-301500-
   Central Minnesota

CITY           SKY/WX    TMP DP  RH WIND       PRES   REMARKS
ST CLOUD       FOG       51  51 100 E5        30.39S VSB 3/4
SAUK CENTRE    FOG       49  49 100 E6        30.38F VSB 1/4
PAYNESVILLE    FOG       50  50 100 E6        30.38S VSB 3/4
AITKIN         CLOUDY    52  46  82 CALM      30.40F
PINE RIVER     CLOUDY    50  50 100 S5        30.42F
BRAINERD       CLOUDY    51  49  92 VRB3      30.41S
STAPLES        FOG       48  46  93 SE3       30.39F VSB 3/4
LONG PRAIRIE   SNOW      48  48 100 NE7       30.39F VSB 1/2
LITTLE FALLS   CLOUDY    48  46  93 E3        30.40S FOG
LITCHFIELD     DRZL/FOG  52  52 100 E5        30.38S VSB 1/4
BUFFALO        FOG       50  49  95 NE5       30.40R VSB 3/4
MAPLE LAKE     FOG       51  51  99 NE7       30.39F VSB 1/4
HUTCHINSON     FOG       52  52 100 NE6       30.38S VSB 1/4
$$
MNZ037-044-045-052-053-301500-
   East Central Minnesota

CITY           SKY/WX    TMP DP  RH WIND       PRES   REMARKS
PRINCETON      CLOUDY    52  52 100 CALM      30.40S FOG
MORA           CLOUDY    50  50 100 CALM      30.42F FOG
CAMBRIDGE      CLOUDY    54  52  94 N5        30.38S
MOOSE LAKE     CLOUDY    50  46  87 NE5       30.41S
HINCKLEY       CLOUDY    50  50 100 NE5       30.42S
CLOQUET        CLOUDY    52  48  87 E5        30.43S
MCGREGOR       CLOUDY    50  48  93 E8        30.42F
$$
MNZ071>073-080-081-089-090-097-098-301500-
   Southwest Minnesota

CITY           SKY/WX    TMP DP  RH WIND       PRES   REMARKS
MONTEVIDEO     PTSUNNY   52  52 100 SE3       30.37S FOG
GRANITE FALLS  MOSUNNY   52  51  98 E5        30.37S
CANBY          SUNNY     48  47  97 CALM      30.36F
MARSHALL       FOG       46  45  96 S3        30.36S VSB 1/4
REDWOOD FALLS  FOG       48  47  96 E3        30.36S VSB<1/4
OLIVIA         FOG       50  46  87 E5        30.36S VSB 1/4
PIPESTONE      SUNNY     54  48  82 E3        30.34S
WINDOM         SUNNY     54  52  94 CALM      30.34F FOG
WORTHINGTON    SUNNY     50  49  96 N3        30.35F
JACKSON        SUNNY     52  50  93 NE5       30.34F FOG
TRACY          SUNNY     49  49 100 CALM      30.36S FOG
SLAYTON        SUNNY     50  48  93 CALM      30.36S
$$
MNZ065>067-074>077-082>085-091>093-301500-
   South Central Minnesota

CITY           SKY/WX    TMP DP  RH WIND       PRES   REMARKS
MANKATO        SUNNY     56  52  86 E7        30.35S
NEW ULM        FOG       48  48 100 CALM      30.35S VSB<1/4
ST JAMES       FOG       46  46 100 W5        30.36S VSB<1/4
FAIRMONT       MOSUNNY   50  50 100 CALM      30.34F FOG
GLENCOE        FOG       51  51 100 NE3       30.36S VSB 1/4
FARIBAULT      FOG       50  50 100 NE6       30.36S VSB 1/4
OWATONNA       SUNNY     54  52  94 E3        30.35S
WASECA         SUNNY     54  50  87 NE6       30.36S
ALBERT LEA     SUNNY     55  54  94 NE5       30.33F
$$
MNZ078>079-086>088-094>096-301500-
   Southeast Minnesota

CITY           SKY/WX    TMP DP  RH WIND       PRES   REMARKS
ROCHESTER      SUNNY     55  52  89 NE9       30.33F
RED WING       SUNNY     55  52  88 CALM      30.34F
STANTON        FOG       49  48  95 NE3       30.35F VSB<1/4
DODGE CENTER   SUNNY     54  52  94 N6        30.34F
WINONA         PTSUNNY   54  52  94 NW3       30.33F
AUSTIN         SUNNY     54  52  94 N3        30.32F
PRESTON        SUNNY     54  50  87 NE6       30.32S
$$
ABBREVIATIONS USED IN REMARKS
   TC - TEMPERATURES IN CELSIUS
  WCI - WIND CHILL INDEX
   HX - HEAT INDEX
  VSB - VISIBILITY
$$




USA.gov is the U.S. government's official web portal to all federal, state and local government web resources and services.